Tracking 19177 objects as of 24-May-2018
HD Live streaming from Space Station
objects crossing your sky now

FENGYUN 1C DEB

Track FENGYUN 1C DEB now!
10-day predictions


NORAD ID: 30764
Int'l Code: 1999-025AUA
Perigee: 509.5 km
Apogee: 774.1 km
Inclination: 98.8 °
Period: 97.4 minutes
Semi major axis: 7012 km
RCS: 0.0061 m2 (small)
Launch date: May 10, 1999
Source: People's Republic of China (PRC)
Launch site: Taiyaun Space Center, China (TSC)

Note: This is SATELLITE DEBRIS
aabbcc
Your satellite tracking list
Your tracking list is empty




NASA's NSSDC Master Catalog

Two Line Element Set (TLE):
1 30764U 99025AUA 18143.93545045 +.00000458 +00000-0 +54920-4 0  9998
2 30764 098.8236 143.1343 0188695 019.2560 037.3343 14.78316013601977
Source of the keplerian elements: AFSPC